カタログに戻る

NOAA 15

運用中気象SSO
NORAD 25338·PAYLOAD·🇺🇸 United States

打ち上げ May 13, 1998 から Vandenberg Space Force Base

Loading…

次のパス (今後24時間)

TLE

最新Source: Space-Track

元期: Sep 14, 2026, 13:48 UTC

1 25338U 98030A   26257.57517459  .00000072  00000-0  47078-4 0  9995
2 25338  98.5056 275.7880 0011462  86.1691 274.0801 14.27168538474044

AllMySatでNOAA 15をリアルタイム追跡

Download on the App Store